Weather History for Newport Airport, OR

Change the Weather History Date:

Sunday, April 7, 2013

  Actual Average Record
Temperature  
Mean Temperature 46 °F -  
Max Temperature 50 °F 51 °F 66 °F (2006)
Min Temperature 41 °F 41 °F 33 °F (2011)
Degree Days  
Heating Degree Days 20    
Moisture  
Dew Point 43 °F    
Average Humidity 89    
Maximum Humidity 100    
Minimum Humidity 76    
Precipitation  
Precipitation 0.13 in - - ()
Sea Level Pressure  
Sea Level Pressure 29.88 in    
Wind  
Wind Speed 21 mph (WSW)    
Max Wind Speed 34 mph    
Max Gust Speed 52 mph    
Visibility 7 miles    
Events Rain    
Averages and records for this station are not official NWS values.
T = Trace of Precipitation, MM = Missing Value Source: NWS Daily Summary

Daily Weather History Graph

Daily Weather History Graph

Search for Another Location

Airport:

Trip Planner

Search our weather history database for the weather conditions in past years. The results will help you decide how hot, cold, wet, or windy it might be!

Date:

Astronomy

Apr. 07, 2013 Rise Set
Actual Time 6:45 AM PDT 7:51 PM PDT
Civil Twilight 6:15 AM PDT 8:21 PM PDT
Nautical Twilight 5:40 AM PDT 8:57 PM PDT
Astronomical Twilight 5:02 AM PDT 9:35 PM PDT
Moon 5:12 AM PDT (4/7) 5:25 PM PDT (4/7)
Length of Visible Light 14h 05m
Length of Day
13h 05m
Waning Crescent, 7% of the Moon is Illuminated
Apr 7
Waning Crescent
Apr 10
New
Apr 18
First Quarter
Apr 25
Full
May 2
Last Quarter

Hourly Weather History & Observations

Time (PDT) Temp. Windchill Dew Point Humidity Pressure Visibility Wind Dir Wind Speed Gust Speed Precip Events Conditions
12:15 AM 50.0 °F - 50.0 °F 100% 29.72 in 2.5 mi South 34.5 mph 48.3 mph 0.01 in Rain Light Rain
12:35 AM 50.0 °F - 50.0 °F 100% 29.70 in 3.0 mi South 32.2 mph 51.8 mph 0.01 in Rain Light Rain
12:55 AM 50.0 °F - 50.0 °F 100% 29.70 in 3.0 mi South 31.1 mph 41.4 mph 0.02 in Rain Light Rain
1:15 AM 50.0 °F - 50.0 °F 100% 29.70 in 2.5 mi SSW 32.2 mph 42.6 mph 0.01 in Rain Light Rain
1:35 AM 50.0 °F - 50.0 °F 100% 29.70 in 3.0 mi SSW 32.2 mph 43.7 mph 0.01 in Rain Light Rain
1:55 AM 50.0 °F - 50.0 °F 100% 29.68 in 2.5 mi SSW 29.9 mph 41.4 mph 0.01 in Rain Light Rain
2:15 AM 50.0 °F - 48.2 °F 94% 29.66 in 3.0 mi SSW 33.4 mph 42.6 mph N/A   Drizzle
2:35 AM 50.0 °F - 48.2 °F 94% 29.65 in 2.0 mi SSW 33.4 mph 44.9 mph 0.01 in Rain Rain
2:55 AM 50.0 °F - 48.2 °F 94% 29.63 in 5.0 mi SSW 29.9 mph 41.4 mph 0.01 in   Overcast
3:15 AM 50.0 °F - 48.2 °F 94% 29.63 in 4.0 mi SSW 31.1 mph 40.3 mph N/A Rain Light Rain
3:35 AM 50.0 °F - 48.2 °F 94% 29.65 in 3.0 mi SSW 29.9 mph 38.0 mph N/A Rain Light Rain
3:55 AM 48.2 °F - 46.4 °F 93% 29.66 in 5.0 mi SW 25.3 mph 34.5 mph N/A   Overcast
4:15 AM 48.2 °F - 46.4 °F 93% 29.69 in 5.0 mi WSW 21.9 mph 32.2 mph N/A   Overcast
4:35 AM 46.4 °F 39.0 °F 44.6 °F 93% 29.73 in 7.0 mi WSW 19.6 mph 31.1 mph N/A   Overcast
4:55 AM 46.4 °F 39.0 °F 44.6 °F 93% 29.75 in 7.0 mi West 19.6 mph 28.8 mph N/A   Overcast
5:15 AM 46.4 °F 39.2 °F 44.6 °F 93% 29.80 in 7.0 mi WSW 18.4 mph 27.6 mph N/A   Overcast
5:35 AM 46.4 °F 39.5 °F 44.6 °F 93% 29.76 in 3.0 mi WSW 17.3 mph 26.5 mph N/A Rain Light Rain
5:55 AM 46.4 °F 40.4 °F 44.6 °F 93% 29.81 in 7.0 mi WSW 13.8 mph 20.7 mph N/A   Overcast
6:15 AM 46.4 °F 40.4 °F 44.6 °F 93% 29.79 in 7.0 mi SW 13.8 mph 25.3 mph N/A   Overcast
6:35 AM 46.4 °F 40.4 °F 44.6 °F 93% 29.83 in 7.0 mi WSW 13.8 mph 24.2 mph N/A   Overcast
6:55 AM 46.4 °F 39.8 °F 44.6 °F 93% 29.84 in 3.0 mi WSW 16.1 mph 26.5 mph 0.01 in   Heavy Drizzle
7:15 AM 46.4 °F 41.1 °F 42.8 °F 87% 29.83 in 4.0 mi WSW 11.5 mph 25.3 mph N/A Rain Light Rain
7:35 AM 46.4 °F 40.1 °F 44.6 °F 93% 29.90 in 7.0 mi SW 15.0 mph 21.9 mph N/A   Overcast
7:55 AM 46.4 °F 39.5 °F 42.8 °F 87% 29.90 in 7.0 mi WSW 17.3 mph 25.3 mph N/A   Overcast
8:15 AM 46.4 °F 39.8 °F 42.8 °F 87% 29.89 in 7.0 mi SW 16.1 mph 23.0 mph N/A   Overcast
8:35 AM 46.4 °F 40.4 °F 42.8 °F 87% 29.90 in 7.0 mi SW 13.8 mph 21.9 mph N/A   Overcast
8:55 AM 46.4 °F 40.1 °F 42.8 °F 87% 29.90 in 7.0 mi SW 15.0 mph 20.7 mph N/A   Overcast
9:15 AM 46.4 °F 39.2 °F 42.8 °F 87% 29.90 in 5.0 mi SW 18.4 mph 24.2 mph N/A Rain Rain
9:35 AM 46.4 °F 39.5 °F 44.6 °F 93% 29.85 in 5.0 mi SW 17.3 mph 24.2 mph 0.02 in Rain Light Rain
9:55 AM 46.4 °F 40.1 °F 44.6 °F 93% 29.85 in 5.0 mi WSW 15.0 mph 21.9 mph 0.02 in Rain Rain
10:15 AM 46.4 °F 39.5 °F 42.8 °F 87% 29.85 in 4.0 mi WSW 17.3 mph 26.5 mph N/A   Overcast
10:35 AM 46.4 °F 40.1 °F 42.8 °F 87% 29.88 in 7.0 mi WSW 15.0 mph 23.0 mph N/A   Overcast
10:55 AM 44.6 °F 36.9 °F 42.8 °F 93% 29.93 in 10.0 mi WSW 18.4 mph 25.3 mph N/A Rain Light Rain
11:15 AM 46.4 °F 40.4 °F 44.6 °F 93% 29.94 in 7.0 mi SW 13.8 mph 21.9 mph N/A   Overcast
11:35 AM 46.4 °F 39.8 °F 42.8 °F 87% 29.90 in 5.0 mi WSW 16.1 mph 31.1 mph N/A   Overcast
11:55 AM 46.4 °F 39.5 °F 42.8 °F 87% 29.97 in 7.0 mi WSW 17.3 mph 24.2 mph N/A   Overcast
12:15 PM 46.4 °F 40.1 °F 42.8 °F 87% 29.94 in 7.0 mi WSW 15.0 mph 23.0 mph N/A   Overcast
12:35 PM 48.2 °F - 42.8 °F 82% 29.94 in 7.0 mi WSW 13.8 mph 20.7 mph N/A   Overcast
12:55 PM 48.2 °F - 42.8 °F 82% 29.94 in 7.0 mi WSW 15.0 mph 20.7 mph N/A   Overcast
1:15 PM 50.0 °F - 42.8 °F 76% 29.95 in 7.0 mi WSW 16.1 mph 24.2 mph N/A   Mostly Cloudy
1:35 PM 44.6 °F 36.9 °F 41.0 °F 87% 29.94 in 3.0 mi WSW 18.4 mph 28.8 mph 0.01 in Rain Rain
1:55 PM 46.4 °F 40.4 °F 42.8 °F 87% 29.95 in 7.0 mi WSW 13.8 mph 20.7 mph 0.02 in   Mostly Cloudy
2:15 PM 46.4 °F 39.8 °F 42.8 °F 87% - 10.0 mi WSW 16.1 mph 23.0 mph N/A   Overcast
2:35 PM 46.4 °F 40.1 °F 42.8 °F 87% 29.95 in 7.0 mi WSW 15.0 mph - N/A   Overcast
2:55 PM 44.6 °F 40.7 °F 41.0 °F 87% 29.96 in 7.0 mi WSW 6.9 mph - 0.03 in   Overcast
3:15 PM 46.4 °F 42.4 °F 42.8 °F 87% 29.96 in 7.0 mi SW 8.1 mph 16.1 mph N/A   Overcast
3:35 PM 44.6 °F 40.2 °F 41.0 °F 87% 29.97 in 4.0 mi West 8.1 mph 20.7 mph N/A Rain Light Rain
3:55 PM 46.4 °F 40.4 °F 42.8 °F 87% 29.96 in 7.0 mi West 13.8 mph - N/A   Mostly Cloudy
4:15 PM 46.4 °F 41.9 °F 42.8 °F 87% 29.96 in 7.0 mi West 9.2 mph - N/A Rain Light Rain
4:35 PM 46.4 °F 41.9 °F 42.8 °F 87% 29.96 in 7.0 mi West 9.2 mph - N/A   Mostly Cloudy
4:55 PM 44.6 °F 40.2 °F 41.0 °F 87% 29.96 in 7.0 mi WNW 8.1 mph - N/A Rain Light Rain
5:15 PM 46.4 °F 41.1 °F 41.0 °F 81% 29.96 in 10.0 mi WNW 11.5 mph 17.3 mph N/A   Overcast
5:35 PM 46.4 °F 41.5 °F 42.8 °F 87% 29.96 in 7.0 mi WNW 10.4 mph - N/A   Mostly Cloudy
5:55 PM 46.4 °F 41.5 °F 42.8 °F 87% 29.96 in 10.0 mi WNW 10.4 mph - N/A   Mostly Cloudy
6:15 PM 46.4 °F 39.8 °F 41.0 °F 81% 29.96 in 10.0 mi NNW 16.1 mph 23.0 mph N/A   Mostly Cloudy
6:35 PM 44.6 °F 40.7 °F 41.0 °F 87% 29.96 in 10.0 mi NW 6.9 mph - N/A   Overcast
6:55 PM 44.6 °F 38.4 °F 41.0 °F 87% 29.96 in 10.0 mi WNW 12.7 mph 21.9 mph N/A   Overcast
7:15 PM 46.4 °F 41.5 °F 39.2 °F 76% 29.96 in 10.0 mi NW 10.4 mph - N/A   Mostly Cloudy
7:35 PM 44.6 °F 38.1 °F 41.0 °F 87% 29.97 in 10.0 mi NNW 13.8 mph 18.4 mph N/A   Scattered Clouds
7:55 PM 44.6 °F 39.7 °F 39.2 °F 81% 29.97 in 7.0 mi NNW 9.2 mph - N/A   Mostly Cloudy
8:15 PM 44.6 °F 39.2 °F 41.0 °F 87% 29.98 in 10.0 mi NW 10.4 mph - N/A   Mostly Cloudy
8:35 PM 44.6 °F 38.8 °F 41.0 °F 87% 29.99 in 7.0 mi NNW 11.5 mph 24.2 mph N/A Rain Light Rain
8:55 PM 42.8 °F - 39.2 °F 87% 29.99 in 10.0 mi Calm Calm - N/A   Mostly Cloudy
9:15 PM 42.8 °F - 39.2 °F 87% 30.00 in 10.0 mi Calm Calm - N/A   Mostly Cloudy
9:35 PM 41.0 °F - 39.2 °F 93% 30.01 in 10.0 mi Calm Calm - N/A   Overcast
9:55 PM 44.6 °F 38.8 °F 39.2 °F 81% 30.02 in 7.0 mi WNW 11.5 mph 23.0 mph N/A   Light Drizzle
10:15 PM 44.6 °F 39.2 °F 41.0 °F 87% 30.02 in 10.0 mi NW 10.4 mph 17.3 mph N/A   Overcast
10:35 PM 44.6 °F 38.4 °F 37.4 °F 76% 30.03 in 7.0 mi North 12.7 mph 25.3 mph N/A Rain Light Rain
10:55 PM 42.8 °F 38.0 °F 39.2 °F 87% 30.03 in 10.0 mi NNW 8.1 mph - N/A   Mostly Cloudy
11:15 PM 42.8 °F 36.2 °F 39.2 °F 87% 30.03 in 5.0 mi NNW 12.7 mph 25.3 mph 0.01 in Rain Rain
11:35 PM 42.8 °F - 39.2 °F 87% 30.03 in 10.0 mi Calm Calm - 0.01 in   Overcast
11:55 PM 41.0 °F 35.8 °F 41.0 °F 100% 30.04 in 7.0 mi NW 8.1 mph - 0.01 in   Scattered Clouds